Weather History for KFNT - July, 2013

Change the Weather History Date:

Sunday, July 21, 2013

  Actual Average Record
Temperature  
Mean Temperature 73 °F 71 °F  
Max Temperature 84 °F 82 °F 102 °F (1934)
Min Temperature 62 °F 59 °F 44 °F (1958)
Degree Days  
Heating Degree Days 0 0  
Month to date heating degree days 0 10  
Since 1 June heating degree days 41 76  
Since 1 July heating degree days 0 10  
Cooling Degree Days 8 6  
Month to date cooling degree days 237 126  
Year to date cooling degree days 475 270  
Since 1 June cooling degree days 396 238  
Growing Degree Days 23 (Base 50)    
Moisture  
Dew Point 55 °F    
Average Humidity 55    
Maximum Humidity 70    
Minimum Humidity 40    
Precipitation  
Precipitation 0.00 in 0.11 in 1.64 in (1932)
Month to date precipitation 0.33 2.15  
Year to date precipitation 21.60 16.21  
Snow  
Snow 0.00 in 0.00 in 0.00 in ()
Month to date snowfall 0.0 0.0  
Since 1 June snowfall 0.0 0.0  
Since 1 July snowfall 0.0 0.0  
Snow Depth 0.00 in    
Sea Level Pressure  
Sea Level Pressure 29.98 in    
Wind  
Wind Speed 5 mph (ENE)    
Max Wind Speed 12 mph    
Max Gust Speed 15 mph    
Visibility 10 miles    
Events      
T = Trace of Precipitation, MM = Missing Value Source: NWS Daily Summary

Daily Weather History Graph

Daily Weather History Graph

Search for Another Location

Airport or City:

Trip Planner

Search our weather history database for the weather conditions in past years. The results will help you decide how hot, cold, wet, or windy it might be!

Date:

Astronomy

Jul. 21, 2013 Rise Set
Actual Time 6:15 AM EDT 9:07 PM EDT
Civil Twilight 5:41 AM EDT 9:40 PM EDT
Nautical Twilight 4:59 AM EDT 10:22 PM EDT
Astronomical Twilight 4:09 AM EDT 11:11 PM EDT
Moon 8:03 PM EDT (7/21) 5:00 AM EDT (7/21)
Length of Visible Light 15h 58m
Length of Day
14h 51m
Waxing Gibbous, 98% of the Moon is Illuminated
Jul 21
Waxing Gibbous
Jul 22
Full
Jul 29
Last Quarter
Aug 6
New
Aug 14
First Quarter

Hourly Weather History & Observations

Time (EDT) Temp. Heat Index Dew Point Humidity Pressure Visibility Wind Dir Wind Speed Gust Speed Precip Events Conditions
12:53 AM 66.9 °F - 55.9 °F 68% 29.96 in 10.0 mi ENE 10.4 mph - N/A   Clear
1:53 AM 66.0 °F - 55.0 °F 68% 29.97 in 10.0 mi ENE 8.1 mph - N/A   Clear
2:53 AM 64.0 °F - 54.0 °F 70% 29.98 in 10.0 mi ENE 3.5 mph - N/A   Clear
3:53 AM 64.0 °F - 53.1 °F 67% 29.96 in 10.0 mi NE 5.8 mph - N/A   Clear
4:53 AM 62.1 °F - 52.0 °F 70% 29.98 in 10.0 mi ENE 6.9 mph - N/A   Clear
5:53 AM 63.0 °F - 52.0 °F 67% 29.99 in 10.0 mi NE 5.8 mph - N/A   Clear
6:53 AM 63.0 °F - 52.0 °F 67% 29.99 in 10.0 mi ENE 8.1 mph - N/A   Clear
7:53 AM 66.0 °F - 53.1 °F 63% 30.01 in 10.0 mi NE 6.9 mph - N/A   Clear
8:53 AM 68.0 °F - 52.0 °F 56% 30.02 in 10.0 mi ENE 6.9 mph - N/A   Partly Cloudy
9:53 AM 70.0 °F - 52.0 °F 53% 30.02 in 10.0 mi NE 5.8 mph - N/A   Clear
10:53 AM 73.0 °F - 51.1 °F 46% 30.02 in 10.0 mi ENE 4.6 mph - N/A   Partly Cloudy
11:53 AM 75.9 °F - 53.1 °F 45% 30.02 in 10.0 mi Variable 4.6 mph - N/A   Clear
12:53 PM 77.0 °F - 54.0 °F 45% 30.01 in 10.0 mi Calm Calm - N/A   Clear
1:53 PM 80.1 °F 80.1 °F 55.0 °F 42% 30.00 in 10.0 mi Variable 3.5 mph - N/A   Clear
2:53 PM 81.0 °F 80.7 °F 55.0 °F 41% 29.99 in 10.0 mi Calm Calm - N/A   Clear
3:53 PM 82.9 °F 82.1 °F 55.9 °F 39% 29.98 in 10.0 mi North 3.5 mph - N/A   Clear
4:53 PM 82.0 °F 81.6 °F 55.9 °F 41% 29.96 in 10.0 mi Variable 5.8 mph - N/A   Scattered Clouds
5:53 PM 82.0 °F 81.7 °F 57.0 °F 42% 29.95 in 10.0 mi Calm Calm - N/A   Clear
6:53 PM 81.0 °F 81.0 °F 57.0 °F 44% 29.94 in 10.0 mi NNE 8.1 mph - N/A   Scattered Clouds
7:53 PM 78.1 °F - 57.0 °F 48% 29.94 in 10.0 mi NNE 4.6 mph - N/A   Clear
8:53 PM 75.0 °F - 57.9 °F 55% 29.95 in 10.0 mi East 5.8 mph - N/A   Clear
9:53 PM 73.9 °F - 57.9 °F 57% 29.95 in 10.0 mi East 5.8 mph - N/A   Clear
10:53 PM 72.0 °F - 59.0 °F 64% 29.97 in 10.0 mi East 10.4 mph - N/A   Clear
11:53 PM 70.0 °F - 59.0 °F 68% 29.96 in 10.0 mi East 9.2 mph - N/A   Clear